| time (UTC) | temp F | wind direction | speed MPH | gust MPH | rain 1hr in | rain 24hr in | rain mn in | humidity % | barometer mb |
| 20260906133058 | 80 | 246 | 0.0 | 0.0 | 0.00 | 0.00 | 0.00 | 1 | 1012.2 |
| 20260906131600 | 79 | 186 | 0.0 | 0.0 | 0.00 | 0.00 | 0.00 | 1 | 1012.2 |
| 20260906130054 | 79 | 186 | 0.0 | 0.0 | 0.00 | 0.00 | 0.00 | 1 | 1012.4 |
| 20260906124539 | 79 | 186 | 0.0 | 0.0 | 0.00 | 0.01 | 0.00 | 1 | 1012.3 |
| 20260906123037 | 78 | 185 | 0.0 | 0.0 | 0.00 | 0.01 | 0.00 | 1 | 1012.2 |
| 20260906121536 | 77 | 185 | 0.0 | 0.0 | 0.00 | 0.01 | 0.00 | 1 | 1012.1 |
| 20260906120025 | 77 | 185 | 0.0 | 0.0 | 0.00 | 0.01 | 0.00 | 1 | 1012.0 |
| 20260906114528 | 76 | 185 | 0.0 | 0.0 | 0.00 | 0.01 | 0.00 | 1 | 1012.0 |
| 20260906113017 | 76 | 185 | 0.0 | 0.0 | 0.00 | 0.01 | 0.00 | 1 | 1011.8 |
| 20260906111511 | 76 | 185 | 0.0 | 0.0 | 0.00 | 0.01 | 0.00 | 1 | 1011.5 |
| 20260906110008 | 77 | 185 | 0.0 | 0.0 | 0.00 | 0.01 | 0.00 | 1 | 1011.4 |
| 20260906104505 | 77 | 185 | 0.0 | 0.0 | 0.00 | 0.01 | 0.00 | 1 | 1011.3 |
| 20260906103103 | 77 | 201 | 0.0 | 0.0 | 0.00 | 0.01 | 0.00 | 1 | 1011.2 |
| 20260906101558 | 76 | 201 | 0.0 | 0.0 | 0.00 | 0.01 | 0.00 | 1 | 1011.1 |
| 20260906100052 | 76 | 212 | 0.0 | 0.0 | 0.00 | 0.01 | 0.00 | 1 | 1010.9 |
| 20260906094557 | 76 | 212 | 0.0 | 0.0 | 0.00 | 0.01 | 0.00 | 1 | 1011.0 |
| 20260906093048 | 76 | 212 | 0.0 | 0.0 | 0.00 | 0.01 | 0.00 | 1 | 1010.8 |
| 20260906091538 | 76 | 212 | 0.0 | 0.0 | 0.00 | 0.01 | 0.00 | 1 | 1010.7 |
| 20260906090042 | 76 | 212 | 0.0 | 0.0 | 0.00 | 0.01 | 0.00 | 1 | 1010.6 |
| 20260906084530 | 76 | 212 | 0.0 | 0.0 | 0.00 | 0.01 | 0.00 | 1 | 1010.4 |
| 20260906083024 | 76 | 212 | 0.0 | 0.0 | 0.00 | 0.01 | 0.00 | 1 | 1010.3 |
| 20260906081523 | 76 | 212 | 0.0 | 0.0 | 0.00 | 0.01 | 0.00 | 1 | 1010.3 |
| 20260906080019 | 76 | 212 | 0.0 | 0.0 | 0.00 | 0.01 | 0.00 | 1 | 1010.4 |
| 20260906074511 | 76 | 212 | 0.0 | 0.0 | 0.00 | 0.01 | 0.00 | 1 | 1010.5 |
| 20260906073007 | 76 | 212 | 0.0 | 0.0 | 0.00 | 0.01 | 0.00 | 1 | 1010.5 |
| 20260906071501 | 77 | 213 | 0.0 | 0.0 | 0.00 | 0.01 | 0.00 | 1 | 1010.3 |
| 20260906070058 | 77 | 212 | 0.0 | 0.0 | 0.00 | 0.01 | 0.00 | 1 | 1010.4 |
| 20260906064554 | 77 | 212 | 0.0 | 0.0 | 0.00 | 0.01 | 0.00 | 1 | 1010.8 |
| 20260906063049 | 77 | 212 | 0.0 | 0.0 | 0.00 | 0.01 | 0.00 | 1 | 1010.9 |
| 20260906061549 | 77 | 212 | 0.0 | 0.0 | 0.00 | 0.01 | 0.00 | 1 | 1010.9 |
| 20260906060048 | 77 | 212 | 0.0 | 0.0 | 0.00 | 0.01 | 0.00 | 1 | 1011.1 |
| 20260906054542 | 77 | 212 | 0.0 | 0.0 | 0.00 | 0.01 | 0.00 | 1 | 1011.2 |
| 20260906053031 | 78 | 212 | 0.0 | 0.0 | 0.00 | 0.01 | 0.00 | 1 | 1011.3 |
| 20260906051526 | 78 | 212 | 0.0 | 0.0 | 0.00 | 0.01 | 0.00 | 1 | 1011.5 |
| 20260906050023 | 78 | 212 | 0.0 | 0.0 | 0.00 | 0.01 | 0.00 | 1 | 1011.7 |
| 20260906044519 | 78 | 212 | 0.0 | 0.0 | 0.00 | 0.01 | 0.00 | 1 | 1011.6 |
| 20260906043026 | 79 | 212 | 0.0 | 0.0 | 0.00 | 0.01 | 0.00 | 1 | 1011.7 |
| 20260906041509 | 79 | 212 | 0.0 | 0.0 | 0.00 | 0.01 | 0.00 | 1 | 1012.0 |
| 20260906040005 | 79 | 212 | 0.0 | 0.0 | 0.00 | 0.01 | 0.00 | 1 | 1011.9 |
| 20260906034501 | 80 | 212 | 0.0 | 0.0 | 0.00 | 0.01 | 0.01 | 1 | 1011.9 |
| 20260906033056 | 80 | 212 | 0.0 | 0.0 | 0.00 | 0.01 | 0.01 | 1 | 1012.0 |
| 20260906031552 | 80 | 212 | 0.0 | 0.0 | 0.00 | 0.01 | 0.01 | 4 | 1012.1 |
| 20260906030048 | 80 | 212 | 0.0 | 0.0 | 0.00 | 0.01 | 0.01 | 7 | 1011.9 |
| 20260906024547 | 81 | 212 | 0.0 | 0.0 | 0.00 | 0.01 | 0.01 | 7 | 1012.0 |
| 20260906023038 | 80 | 291 | 0.0 | 0.0 | 0.00 | 0.01 | 0.01 | 7 | 1011.9 |
| 20260906021540 | 80 | 51 | 0.0 | 0.0 | 0.00 | 0.01 | 0.01 | 9 | 1011.6 |
| 20260906020030 | 80 | 51 | 0.0 | 0.0 | 0.00 | 0.01 | 0.01 | 13 | 1011.7 |
| 20260906014526 | 80 | 44 | 0.0 | 0.0 | 0.00 | 0.01 | 0.01 | 14 | 1011.5 |
| 20260906013021 | 80 | 71 | 0.0 | 0.0 | 0.00 | 0.01 | 0.01 | 16 | 1011.3 |
| 20260906011517 | 80 | 90 | 0.0 | 0.0 | 0.00 | 0.01 | 0.01 | 16 | 1011.2 |
| 20260906010012 | 80 | 74 | 0.0 | 0.0 | 0.00 | 0.01 | 0.01 | 18 | 1011.1 |
| 20260906004508 | 81 | 74 | 0.0 | 0.0 | 0.00 | 0.01 | 0.01 | 19 | 1010.9 |
| 20260906003004 | 81 | 74 | 0.0 | 0.0 | 0.00 | 0.01 | 0.01 | 26 | 1010.8 |
| 20260906001604 | 82 | 74 | 0.0 | 0.0 | 0.00 | 0.01 | 0.01 | 23 | 1010.7 |
| 20260906000056 | 83 | 74 | 0.0 | 0.0 | 0.00 | 0.01 | 0.01 | 22 | 1010.8 |
| 20260905234551 | 83 | 74 | 0.0 | 0.0 | 0.00 | 0.01 | 0.01 | 31 | 1010.5 |
| 20260905233046 | 83 | 78 | 0.0 | 0.0 | 0.00 | 0.01 | 0.01 | 36 | 1010.5 |
| 20260905231542 | 84 | 158 | 0.0 | 0.0 | 0.00 | 0.01 | 0.01 | 41 | 1010.4 |
| 20260905230039 | 84 | 121 | 0.0 | 0.0 | 0.00 | 0.01 | 0.01 | 36 | 1010.6 |
| 20260905224534 | 84 | 86 | 0.0 | 0.0 | 0.00 | 0.01 | 0.01 | 23 | 1010.8 |
| 20260905223042 | 84 | 77 | 0.0 | 0.0 | 0.00 | 0.01 | 0.01 | 28 | 1010.9 |
| 20260905221524 | 84 | 77 | 0.0 | 0.0 | 0.00 | 0.01 | 0.01 | 35 | 1011.3 |
| 20260905220021 | 84 | 163 | 0.0 | 0.0 | 0.00 | 0.01 | 0.01 | 34 | 1011.3 |
| 20260905214516 | 85 | 61 | 0.0 | 0.0 | 0.00 | 0.01 | 0.01 | 36 | 1011.4 |
| 20260905213011 | 85 | 61 | 0.0 | 0.0 | 0.00 | 0.01 | 0.01 | 42 | 1011.2 |
| 20260905211506 | 85 | 198 | 0.0 | 0.0 | 0.00 | 0.01 | 0.01 | 41 | 1011.3 |
| 20260905210001 | 85 | 194 | 0.0 | 0.0 | 0.00 | 0.01 | 0.01 | 42 | 1011.8 |
| 20260905204600 | 85 | 194 | 0.0 | 0.0 | 0.00 | 0.01 | 0.01 | 25 | 1011.4 |
| 20260905203053 | 86 | 194 | 0.0 | 0.0 | 0.00 | 0.01 | 0.01 | 36 | 1011.2 |
| 20260905201549 | 86 | 194 | 0.0 | 0.0 | 0.00 | 0.01 | 0.01 | 47 | 1011.2 |
| 20260905200110 | 86 | 206 | 0.0 | 0.0 | 0.00 | 0.01 | 0.01 | 50 | 1011.4 |
| 20260905194540 | 86 | 206 | 0.0 | 0.0 | 0.00 | 0.01 | 0.01 | 50 | 1011.6 |
| 20260905193040 | 86 | 203 | 0.0 | 0.0 | 0.00 | 0.01 | 0.01 | 31 | 1011.7 |
| 20260905191537 | 85 | 251 | 0.0 | 0.0 | 0.00 | 0.01 | 0.01 | 9 | 1011.7 |
| 20260905190033 | 83 | 251 | 0.0 | 0.0 | 0.00 | 0.01 | 0.01 | 1 | 1011.7 |
| 20260905184535 | 82 | 251 | 0.0 | 0.0 | 0.00 | 0.01 | 0.01 | 1 | 1012.1 |
| 20260905183034 | 82 | 251 | 0.0 | 0.0 | 0.00 | 0.01 | 0.01 | 1 | 1012.0 |
| 20260905181520 | 81 | 251 | 0.0 | 0.0 | 0.00 | 0.01 | 0.01 | 1 | 1012.1 |
| 20260905180016 | 81 | 251 | 0.0 | 0.0 | 0.00 | 0.01 | 0.01 | 1 | 1012.3 |
| 20260905174513 | 81 | 251 | 0.0 | 0.0 | 0.00 | 0.01 | 0.01 | 1 | 1012.4 |
| 20260905173010 | 82 | 251 | 0.0 | 0.0 | 0.00 | 0.01 | 0.01 | 12 | 1012.6 |
| 20260905171501 | 84 | 257 | 0.0 | 3.0 | 0.00 | 0.01 | 0.01 | 51 | 1013.0 |
| 20260905170058 | 88 | 218 | 0.0 | 0.0 | 0.00 | 0.01 | 0.01 | 64 | 1012.7 |
| 20260905164553 | 88 | 128 | 0.0 | 4.0 | 0.00 | 0.01 | 0.01 | 64 | 1012.8 |
| 20260905163048 | 89 | 223 | 0.0 | 2.0 | 0.00 | 0.01 | 0.01 | 63 | 1013.1 |
| 20260905161544 | 88 | 231 | 0.0 | 3.0 | 0.00 | 0.01 | 0.01 | 61 | 1013.2 |
| 20260905160040 | 87 | 214 | 0.0 | 3.0 | 0.00 | 0.01 | 0.01 | 60 | 1013.3 |
| 20260905154535 | 87 | 184 | 3.0 | 6.0 | 0.00 | 0.01 | 0.01 | 61 | 1013.4 |
| 20260905153035 | 87 | 177 | 2.0 | 5.0 | 0.00 | 0.01 | 0.01 | 60 | 1013.7 |
| 20260905151527 | 86 | 188 | 2.0 | 4.0 | 0.00 | 0.01 | 0.01 | 52 | 1013.7 |
| 20260905150025 | 85 | 228 | 0.0 | 4.0 | 0.00 | 0.01 | 0.01 | 40 | 1013.7 |
| 20260905144519 | 85 | 171 | 1.0 | 6.0 | 0.00 | 0.01 | 0.01 | 40 | 1013.8 |
| 20260905143020 | 84 | 178 | 0.0 | 4.0 | 0.00 | 0.01 | 0.01 | 33 | 1013.8 |
| 20260905141512 | 84 | 120 | 0.0 | 3.0 | 0.00 | 0.01 | 0.01 | 17 | 1013.7 |
| 20260905140004 | 82 | 167 | 1.0 | 3.0 | 0.00 | 0.01 | 0.01 | 1 | 1014.0 |
| 20260905134604 | 81 | 169 | 0.0 | 2.0 | 0.01 | 0.01 | 0.01 | 1 | 1013.9 |